Effective Sunday, March 17, 2024, the National Weather Service National Data Buoy Center will discontinue its Dial-A-Buoy Interactive Voice Response system. For more information, see Service Change Notice 24-06 (PDF).

Station BUFN6 - 9063020 - Buffalo, NY Image indicating link to RSS feed of recent meteorological observations for station BUFN6


Conditions at BUFN6 as of
(2:00 am EST)
0700 GMT on 02/29/2024:
     

Click on the graph icon in the table below to see a time series plot of the last five days of that observation.

5-day plot - Wind Direction Wind Direction (WDIR): W ( 260 deg true )
5-day plot - Wind Speed Wind Speed (WSPD): 21.0 kts
5-day plot - Wind Gust Wind Gust (GST): 25.1 kts
5-day plot - Atmospheric Pressure Atmospheric Pressure (PRES):30.13 in
5-day plot - Pressure Tendency Pressure Tendency (PTDY):+0.07 in ( Rising )
5-day plot - Air Temperature Air Temperature (ATMP): 24.8 °F
5-day plot - Water Temperature Water Temperature (WTMP): 37.8 °F
5-day plot - Dew Point Dew Point (DEWP): 11.3 °F
5-day plot - Ice Accretion Ice Accretion (ICE): 0.12 in per hour
5-day plot - Wind Chill Wind Chill (CHILL): 9.3 °F
5-day plot - Wind Speed at 10 Meters Wind Speed at 10 meters (WSPD10M): 21.4 kts
5-day plot - Wind Speed at 20 Meters Wind Speed at 20 meters (WSPD20M): 23.3 kts
5-day plot -  Wind Speed, Wind Gust and Atmospheric Pressure Combined plot of Wind Speed, Gust, and Air Pressure
NOS Water Level Observation Network Water Level
Previous observations
TIME
(EST)
5-day plot - Wind Direction
WDIR
 
5-day plot - Wind Speed
WSPD
kts
5-day plot - Wind Gust
GST
kts
5-day plot - Wave Height
WVHT
ft
5-day plot - Dominant Wave Period
DPD
sec
5-day plot - Average Wave Period
APD
sec
5-day plot - Mean Wave Direction
MWD
 
5-day plot - Atmospheric Pressure
PRES
in
5-day plot - Pressure Tendency
PTDY
in
5-day plot - Air Temperature
ATMP
°F
5-day plot - Water Temperature
WTMP
°F
5-day plot - Dew Point
DEWP
°F
5-day plot - Salinity
SAL
psu
5-day plot - Visibility
VIS
nmi
5-day plot - Tide (above MLLW)
TIDE
ft
2024-02-29 01:54 am W 21.0 31.1----30.13- 25.0 37.8 12.0---
2024-02-29 01:48 am W 22.0 28.0----30.12- 24.8 37.8 10.6---
2024-02-29 01:42 amWSW 24.1 28.0----30.12- 25.0 37.8 11.5---
2024-02-29 01:36 am W 26.0 28.9----30.12- 24.4 37.8 9.0---
2024-02-29 01:30 am W 25.1 32.1----30.12- 25.0 37.9 11.7---
2024-02-29 01:24 am W 24.1 31.1----30.11- 24.6 37.9 10.6---
2024-02-29 01:18 am W 22.0 31.1----30.11- 24.6 37.9 11.8---
2024-02-29 01:12 am W 21.0 29.9----30.11- 25.3 37.9 15.1---
2024-02-29 01:06 am W 24.1 28.9----30.10- 25.0 37.9 13.3---
2024-02-29 01:00 amWSW 24.1 28.9----30.10+0.07 25.2 37.9 13.3---
2024-02-29 12:54 am W 21.0 25.1----30.10- 25.0 37.8 13.1---
2024-02-29 12:48 am W 22.0 28.0----30.10- 25.0 37.8 13.5---
2024-02-29 12:42 am W 24.1 31.1----30.09- 25.0 37.8 13.6---
2024-02-29 12:36 am W 26.0 31.1----30.09- 24.8 37.8 12.6---
2024-02-29 12:30 amWSW 24.1 27.0----30.08- 25.2 37.8 14.2---
2024-02-29 12:24 amWSW 24.1 28.9----30.08- 25.0 37.9 13.3---
2024-02-29 12:18 am W 20.0 29.9----30.08- 25.2 37.9 14.2---
2024-02-29 12:12 am W 27.0 33.0----30.08- 25.0 37.9 13.1---
2024-02-29 12:06 amWSW 22.0 28.0----30.07- 25.3 37.9 14.5---
2024-02-29 12:00 am W 20.0 24.1----30.07+0.09 24.6 37.9 14.7---
2024-02-28 11:54 pm W 19.0 26.0----30.07- 24.1 37.9 16.3---
2024-02-28 11:48 pm W 19.0 25.1----30.07- 23.5 37.9 17.4---
2024-02-28 11:42 pm W 22.0 29.9----30.06- 23.9 37.9 18.1---
2024-02-28 11:36 pmWSW 25.1 28.9----30.06- 24.1 37.9 17.6---
2024-02-28 11:30 pm W 22.0 32.1----30.06- 24.3 37.9 18.3---
2024-02-28 11:24 pmWSW 25.1 28.9----30.06- 24.6 37.9 17.6---
2024-02-28 11:18 pm W 25.1 28.9----30.06- 24.8 37.9 16.9---
2024-02-28 11:12 pm W 27.0 33.0----30.05- 25.0 37.9 16.2---
2024-02-28 11:06 pm W 19.0 22.9----30.05- 25.0 37.9 18.5---
2024-02-28 11:00 pm W 18.1 21.0----30.05+0.13 24.1 37.9 19.9---
2024-02-28 10:54 pm W 15.9 21.0----30.05- 23.7 37.9 21.6---
2024-02-28 10:48 pm W 18.1 24.1----30.05- 23.7 37.9 21.0---
2024-02-28 10:42 pm W 18.1 25.1----30.05- 24.1 37.9 21.7---
2024-02-28 10:36 pm W 21.0 28.0----30.04- 24.3 37.9 21.9---
2024-02-28 10:30 pm W 25.1 28.9----30.04- 23.9 37.9 21.2---
2024-02-28 10:24 pm W 18.1 25.1----30.04- 24.6 37.9 21.2---
2024-02-28 10:18 pm W 17.1 32.1----30.04- 24.3 37.9 21.6---
2024-02-28 10:12 pm W 20.0 25.1----30.03- 24.1 37.9 19.9---
2024-02-28 10:06 pm W 19.0 22.9----30.03- 23.7 37.9 20.5---
2024-02-28 10:00 pm W 20.0 26.0----30.03+0.19 24.3 37.9 20.3---
2024-02-28 09:54 pm W 22.9 31.1----30.02- 24.8 37.9 18.7---
2024-02-28 09:48 pm W 25.1 31.1----30.01- 25.7 38.1 17.1---
2024-02-28 09:42 pm W 24.1 32.1----30.01- 26.2 38.1 15.6---
2024-02-28 09:36 pm W 27.0 31.1----30.00- 26.1 38.1 14.9---
2024-02-28 09:30 pm W 19.0 26.0----30.01- 25.9 38.1 16.2---
2024-02-28 09:24 pm W 19.0 27.0----30.00- 25.9 38.1 15.4---
2024-02-28 09:18 pm W 24.1 27.0----29.99- 25.9 38.1 14.5---
2024-02-28 09:12 pm W 22.0 29.9----29.99- 26.4 38.1 17.1---
2024-02-28 09:06 pm W 25.1 32.1----29.98- 25.9 38.1 15.1---
2024-02-28 09:00 pm W 26.0 28.9----29.98+0.22 26.2 38.1 15.8---
2024-02-28 08:54 pm W 22.0 29.9----29.98- 26.1 38.1 15.3---
2024-02-28 08:48 pm W 26.0 29.9----29.97- 26.6 38.1 16.7---
2024-02-28 08:42 pm W 26.0 34.0----29.97- 26.1 38.1 15.1---
2024-02-28 08:36 pm W 22.9 29.9----29.96- 26.2 38.1 16.0---
2024-02-28 08:30 pm W 22.9 28.9----29.96- 26.1 38.1 16.2---
2024-02-28 08:24 pm W 25.1 34.0----29.95- 26.2 38.1 16.7---
2024-02-28 08:18 pm W 26.0 29.9----29.95- 26.4 38.1 17.1---
2024-02-28 08:12 pm W 19.0 24.1----29.94- 25.5 38.1 18.9---
2024-02-28 08:06 pm W 19.0 25.1----29.93- 25.3 38.1 21.0---
2024-02-28 08:00 pm W 24.1 28.0----29.93+0.25 25.0 38.1 20.7---
2024-02-28 07:54 pm W 22.9 28.9----29.92- 25.9 38.1 19.8---
2024-02-28 07:48 pm W 20.0 29.9----29.91- 25.7 38.1 22.6---
2024-02-28 07:42 pm W 24.1 34.0----29.90- 25.7 38.3 21.4---
2024-02-28 07:36 pm W 26.0 33.0----29.89- 27.0 38.3 18.7---
2024-02-28 07:30 pm W 27.0 35.0----29.88- 27.0 38.3 19.4---
2024-02-28 07:24 pmWSW 28.9 35.0----29.88- 27.0 38.1 19.9---
2024-02-28 07:18 pm W 29.9 35.9----29.87- 28.0 38.3 16.9---
2024-02-28 07:12 pm W 28.9 39.0----29.86- 27.9 38.3 16.0---
2024-02-28 07:06 pm W 27.0 36.9----29.85- 28.4 38.3 17.4---
2024-02-28 07:00 pm W 31.1 41.0----29.84+0.26 28.6 38.3 17.6---
2024-02-28 06:54 pmWSW 33.0 40.0----29.83- 28.4 38.3 17.4---
2024-02-28 06:48 pmWSW 32.1 39.0------ 28.8 38.3 17.4---
2024-02-28 06:42 pm W 28.9 35.9------ 28.8 38.3 17.2---
2024-02-28 06:36 pm W 31.1 46.0------ 29.1 38.3 17.4---
2024-02-28 06:30 pm-------29.80-- 38.3----
2024-02-28 06:24 pm-------29.79-- 38.3----
2024-02-28 06:00 pm W 31.1 38.1----29.76+0.27 29.1 38.5 18.3---
2024-02-28 05:54 pm W 28.9 38.1----29.75- 29.3 38.5 18.9---
2024-02-28 05:48 pm W 28.9 34.0----29.75- 29.5 38.5 19.4---
2024-02-28 05:42 pm W 28.0 35.9----29.74- 29.7 38.3 19.6---
2024-02-28 05:36 pm W 26.0 33.0----29.74- 30.0 38.5 20.5---
2024-02-28 05:30 pm W 25.1 35.0----29.73- 30.2 38.5 20.5---
2024-02-28 05:24 pmWSW 28.9 41.0----29.72- 30.7 38.5 21.6---
2024-02-28 05:18 pmWSW 31.1 36.9----29.71- 30.6 38.5 20.7---
2024-02-28 05:12 pmWSW 29.9 38.1----29.70- 31.1 38.5 22.5---
2024-02-28 05:06 pmWSW 32.1 38.1----29.69- 30.9 38.5 21.6---
2024-02-28 05:00 pmWSW 28.0 32.1----29.68+0.27 31.1 38.5 22.8---
2024-02-28 04:54 pm W 28.0 36.9----29.67- 30.9 38.5 23.2---
2024-02-28 04:48 pm W 28.0 34.0----29.66- 31.3 38.5 23.7---
2024-02-28 04:42 pm W 31.1 36.9----29.65- 31.3 38.5 23.5---
2024-02-28 04:36 pmWSW 32.1 35.9----29.64- 31.8 38.5 23.0---
2024-02-28 04:30 pmWSW 27.0 35.0----29.63- 32.2 38.5 23.7---
2024-02-28 04:24 pm W 22.0 31.1----29.62- 32.7 38.5 25.3---
2024-02-28 04:18 pmWSW 26.0 29.9----29.61- 32.7 38.5 25.3---
2024-02-28 04:12 pmWSW 26.0 34.0----29.60- 32.7 38.5 24.8---
2024-02-28 04:06 pmWSW 28.9 36.9----29.59- 32.9 38.3 24.8---
2024-02-28 04:00 pmWSW 28.0 36.9----29.59+0.27 33.1 38.5 24.4---
2024-02-28 03:54 pmWSW 28.9 33.0----29.57- 33.4 38.5 24.3---
2024-02-28 03:48 pm W 22.9 29.9----29.57- 33.4 38.5 26.4---
2024-02-28 03:42 pmWSW 22.0 33.0----29.57- 33.6 38.5 27.7---
2024-02-28 03:36 pmWSW 28.0 34.0----29.55- 33.6 38.5 27.5---
2024-02-28 03:30 pmWSW 27.0 32.1----29.55- 33.8 38.5 29.1---
2024-02-28 03:24 pmWSW 27.0 34.0----29.54- 34.2 38.5 29.7---
2024-02-28 03:18 pmWSW 22.9 28.0----29.53- 34.3 38.5 30.4---
2024-02-28 03:12 pmWSW 25.1 32.1----29.52- 34.7 38.5 31.1---
2024-02-28 03:06 pmWSW 28.0 33.0----29.51- 35.2 38.5 31.3---
2024-02-28 03:00 pmWSW 31.1 35.9----29.49+0.22 35.8 38.3 30.9---
2024-02-28 02:54 pm SW 28.0 34.0----29.49- 36.3 38.3 30.7---
2024-02-28 02:48 pmWSW 28.9 35.9----29.48- 36.5 38.3 30.7---
2024-02-28 02:42 pmWSW 28.9 34.0----29.47- 37.0 38.5 30.7---
2024-02-28 02:36 pm SW 26.0 28.9----29.47- 37.2 38.5 32.2---
2024-02-28 02:30 pm SW 26.0 33.0----29.45- 37.6 38.5 32.2---
2024-02-28 02:24 pm SW 22.9 28.0----29.44- 37.8 38.5 33.1---
2024-02-28 02:18 pm SW 22.0 32.1----29.43- 37.8 38.5 33.8---
2024-02-28 02:12 pm SW 28.9 34.0----29.43- 38.5 38.5 33.6---
2024-02-28 02:06 pm SW 27.0 34.0----29.42- 38.5 38.5 33.8---
2024-02-28 02:00 pm SW 28.0 32.1----29.41+0.16 38.8 38.5 33.4---
2024-02-28 01:54 pm SW 26.0 31.1----29.40- 38.8 38.5 34.0---
2024-02-28 01:48 pm SW 25.1 32.1----29.39- 38.8 38.5 35.4---
2024-02-28 01:42 pm SW 24.1 28.0----29.37- 39.2 38.5 36.5---
2024-02-28 01:36 pm SW 22.9 29.9----29.36- 39.4 38.5 37.2---
2024-02-28 01:30 pm SW 26.0 31.1----29.35- 39.7 38.5 37.6---
2024-02-28 01:24 pmSSW 26.0 31.1----29.34- 39.6 38.5 37.4---
2024-02-28 01:18 pmSSW 25.1 32.1----29.33- 39.7 38.5 37.6---
2024-02-28 01:12 pmSSW 24.1 38.1----29.33- 39.9 38.5 37.6---
2024-02-28 01:06 pmSSW 26.0 34.0----29.33- 40.3 38.5 37.6---
2024-02-28 01:00 pmSSW 26.0 33.0----29.32+0.06 40.6 38.5 37.9---
2024-02-28 12:54 pmSSW 22.9 29.9----29.32- 40.8 38.5 38.1---
2024-02-28 12:48 pmSSW 22.0 29.9----29.31- 41.4 38.5 38.7---
2024-02-28 12:42 pmSSW 22.9 31.1----29.32- 41.9 38.5 39.2---
2024-02-28 12:36 pmSSW 21.0 28.9----29.31- 42.6 38.5 40.1---
2024-02-28 12:30 pmSSW 20.0 28.0----29.31- 43.3 38.3 40.8---
2024-02-28 12:24 pm SW 25.1 28.9----29.30- 44.2 38.3 41.5---
2024-02-28 12:18 pm SW 22.0 26.0----29.28- 45.0 38.1 42.1---
2024-02-28 12:12 pm SW 22.9 26.0----29.28- 46.0 38.1 42.8---
2024-02-28 12:06 pm SW 25.1 40.0----29.29- 48.2 38.1 43.9---
2024-02-28 12:00 pmSSW 15.9 22.9----29.27-0.02 50.7 38.1 46.8---
2024-02-28 11:54 amSSW 15.9 18.1----29.26- 48.9 38.1 45.5---
2024-02-28 11:48 amSSW 13.0 15.9----29.26- 47.7 38.1 44.6---
2024-02-28 11:42 am S 13.0 15.0----29.26- 49.3 38.1 46.0---
2024-02-28 11:36 am S 11.1 14.0----29.26- 49.1 38.1 45.9---
2024-02-28 11:30 am S 11.1 13.0----29.25- 50.5 38.1 47.1---
2024-02-28 11:24 am S 9.9 14.0----29.25- 50.2 38.1 46.6---
2024-02-28 11:18 am S 8.9 13.0----29.25- 49.3 38.1 46.0---
2024-02-28 11:12 am S 11.1 14.0----29.25- 51.4 38.1 47.8---
2024-02-28 11:06 am S 14.0 17.1----29.24- 51.8 37.9 47.8---
2024-02-28 11:00 am S 14.0 17.1----29.25-0.03 51.4 37.9 47.7---
2024-02-28 10:54 am S 15.0 18.1----29.25- 52.3 37.9 48.2---
2024-02-28 10:48 am S 15.9 19.0----29.25- 52.5 37.8 48.4---
2024-02-28 10:42 am S 15.9 18.1----29.25- 52.2 37.9 48.2---
2024-02-28 10:36 amSSE 15.9 18.1----29.25- 51.4 37.9 47.8---
2024-02-28 10:30 amSSE 15.9 19.0----29.25- 52.2 37.8 48.6---
2024-02-28 10:24 amSSE 18.1 20.0----29.26- 52.2 37.8 48.6---
2024-02-28 10:18 amSSE 17.1 20.0----29.26- 51.3 37.8 48.0---
2024-02-28 10:12 amSSE 15.0 19.0----29.26- 50.7 37.8 47.7---
2024-02-28 10:06 amSSE 15.9 19.0----29.26- 50.9 37.8 47.8---
2024-02-28 10:00 amSSE 17.1 20.0----29.26-0.01 51.3 37.8 48.2---
2024-02-28 09:54 amSSE 18.1 20.0----29.26- 51.4 37.8 48.6---
2024-02-28 09:48 amSSE 15.9 19.0----29.27- 50.4 37.8 48.2---
2024-02-28 09:42 amSSE 13.0 15.9----29.27- 48.2 37.8 46.6---
2024-02-28 09:36 amSSE 14.0 18.1----29.27- 49.1 37.8 47.5---
2024-02-28 09:30 amSSE 12.0 15.0----29.26- 48.7 37.8 47.1---
2024-02-28 09:24 amSSE 14.0 15.9----29.26- 48.9 37.8 47.3---
2024-02-28 09:18 amSSE 14.0 15.9----29.27- 48.6 37.8 46.8---
2024-02-28 09:12 am S 13.0 15.0----29.28- 48.7 37.8 46.6---
2024-02-28 09:06 am S 12.0 14.0----29.28- 49.1 37.8 47.3---
2024-02-28 09:00 am S 11.1 14.0----29.29-0.03 49.1 37.8 47.3---
2024-02-28 08:54 am S 11.1 13.0----29.29- 49.1 37.6 47.5---
2024-02-28 08:48 am S 14.0 15.9----29.30- 49.1 37.6 47.1---
2024-02-28 08:42 am S 13.0 18.1----29.30- 49.8 37.6 48.0---
2024-02-28 08:36 am S 13.0 19.0----29.30- 49.8 37.6 47.3---
2024-02-28 08:30 am S 18.1 21.0----29.30- 51.6 37.6 48.2---
2024-02-28 08:24 am S 15.9 21.0----29.30- 50.7 37.6 47.1---
2024-02-28 08:18 am S 18.1 22.0----29.28- 51.8 37.6 48.2---
2024-02-28 08:12 amSSE 17.1 19.0----29.28- 51.1 37.6 47.1---
2024-02-28 08:06 am S 15.9 19.0----29.29- 51.1 37.6 47.1---
2024-02-28 08:00 am S 15.9 18.1----29.28-0.06 51.1 37.6 47.3---
2024-02-28 07:54 am S 15.9 18.1----29.29- 50.7 37.6 46.9---
2024-02-28 07:48 am S 17.1 20.0----29.28- 51.3 37.6 47.1---
2024-02-28 07:42 amSSE 19.0 20.0----29.28- 52.0 37.6 47.7---
2024-02-28 07:36 am S 15.0 18.1----29.28- 51.1 37.6 47.3---
2024-02-28 07:30 amSSE 15.9 18.1----29.28- 50.7 37.6 47.3---
2024-02-28 07:24 amSSE 15.0 20.0----29.28- 51.1 37.6 47.5---
2024-02-28 07:18 amSSE 18.1 20.0----29.28- 51.4 37.6 47.8---
2024-02-28 07:12 amSSE 19.0 20.0----29.28- 51.1 37.6 47.1---
2024-02-28 07:06 amSSE 15.9 20.0----29.28- 50.7 37.6 46.6---
2024-02-28 07:00 amSSE 18.1 21.0----29.28-0.06 51.1 37.6 46.9---
2024-02-28 06:54 amSSE 15.0 17.1----29.28- 50.5 37.4 46.6---
2024-02-28 06:48 amSSE 12.0 15.9----29.29- 50.7 37.4 46.4---
2024-02-28 06:42 am SE 8.9 11.1----29.30- 50.4 37.4 46.4---
2024-02-28 06:36 amSSE 8.9 11.1----29.30- 49.6 37.4 46.0---
2024-02-28 06:30 am SE 8.0 11.1----29.31- 49.5 37.4 46.0---
2024-02-28 06:24 amSSE 9.9 13.0----29.31- 50.2 37.4 46.2---
2024-02-28 06:18 am SE 8.9 11.1----29.31- 51.4 37.4 47.1---
2024-02-28 06:12 am SE 8.0 12.0----29.31- 50.4 37.4 46.6---
2024-02-28 06:06 am SE 9.9 14.0----29.31- 51.6 37.4 47.5---
2024-02-28 06:00 am SE 8.0 14.0----29.32-0.09 50.4 37.4 46.4---
2024-02-28 05:54 am SE 12.0 15.9----29.31- 53.4 37.4 48.6---
2024-02-28 05:48 amSSE 15.0 18.1----29.31- 53.6 37.4 48.2---
2024-02-28 05:42 am SE 9.9 14.0----29.32- 51.3 37.4 47.5---
2024-02-28 05:36 amSSE 7.0 9.9----29.33- 48.6 37.4 46.8---
2024-02-28 05:30 amSSE 6.0 8.9----29.33- 49.3 37.4 47.5---
2024-02-28 05:24 am SE 5.1 8.9----29.34- 49.8 37.4 47.3---
2024-02-28 05:18 amSSE 7.0 13.0----29.34- 49.6 37.4 47.1---
2024-02-28 05:12 amSSE 8.9 13.0----29.34- 50.0 37.4 47.1---
2024-02-28 05:06 amSSE 12.0 13.0----29.34- 50.0 37.4 46.8---
2024-02-28 05:00 amSSE 8.9 12.0----29.34-0.11 50.5 37.4 46.9---
2024-02-28 04:54 am SE 8.0 18.1----29.34- 51.4 37.4 47.8---
2024-02-28 04:48 am SE 11.1 14.0----29.34- 52.9 37.2 49.3---
2024-02-28 04:42 am SE 9.9 12.0----29.34- 51.8 37.2 48.9---
2024-02-28 04:36 am SE 9.9 12.0----29.34- 50.4 37.2 47.5---
2024-02-28 04:30 am SE 9.9 14.0----29.35- 50.0 37.4 46.2---
2024-02-28 04:24 am SE 12.0 15.9----29.35- 54.1 37.2 49.8---
2024-02-28 04:18 am SE 9.9 14.0----29.34- 53.4 37.2 49.8---
2024-02-28 04:12 am SE 13.0 17.1----29.35- 53.1 37.2 49.3---
2024-02-28 04:06 am SE 11.1 15.9----29.35- 54.3 37.2 50.5---
2024-02-28 04:00 amESE 12.0 15.9----29.34-0.12 54.0 37.2 50.7---
2024-02-28 03:54 am SE 13.0 15.9----29.37- 51.6 37.2 48.9---
2024-02-28 03:48 am SE 13.0 17.1----29.37- 51.4 37.2 49.1---
2024-02-28 03:42 am SE 12.0 15.9----29.38- 51.8 37.2 48.2---
2024-02-28 03:36 amESE 12.0 15.9----29.38- 53.6 37.2 49.3---
2024-02-28 03:30 amESE 9.9 15.9----29.38- 53.6 37.2 49.3---
2024-02-28 03:24 amESE 9.9 18.1----29.38- 53.8 37.2 49.5---
2024-02-28 03:18 amESE 12.0 15.0----29.39- 54.1 37.2 49.5---
2024-02-28 03:12 amESE 11.1 14.0----29.39- 53.6 37.2 49.5---
2024-02-28 03:06 amESE 9.9 15.0----29.40- 53.1 37.2 49.5---
2024-02-28 03:00 amESE 12.0 17.1----29.41-0.06 53.2 37.0 49.5---
2024-02-28 02:54 amESE 12.0 15.9----29.41- 53.6 37.0 49.3---
2024-02-28 02:48 amESE 8.9 13.0----29.41- 52.7 37.0 50.0---
2024-02-28 02:42 am SE 8.9 14.0----29.43- 50.2 37.0 47.7---
2024-02-28 02:36 am SE 12.0 15.9----29.43- 50.5 37.0 48.2---
2024-02-28 02:30 amSSE 11.1 14.0----29.44- 48.2 37.0 46.9---
2024-02-28 02:24 amSSE 8.9 13.0----29.45- 47.3 37.0 46.0---
2024-02-28 02:18 amSSE 12.0 20.0----29.45- 47.3 37.0 46.0---
2024-02-28 02:12 amSSE 15.9 20.0----29.45- 47.7 37.0 45.9---
2024-02-28 02:06 amSSE 18.1 22.9----29.45- 47.3 37.0 45.1---
2024-02-28 02:00 amSSE 22.0 25.1----29.44-0.05 48.0 37.0 45.7---
2024-02-28 01:54 amSSE 22.0 26.0----29.44- 48.9 37.0 46.0---